User: anonymous   Login
Location: Unspecified
(0.0000°N, 0.0000°E)
Time: 15:51:49
(UTC+02:00)
Language:

Delta 2 Rocket - Orbit

View from above orbital plane
View from above orbital plane
View from above satellite
View from above satellite

Ground track
Ground track

The orbit data is extracted from the following two-line orbital elements,

1 20453U 90008B   18172.15225963  .00000736  00000-0  44891-4 0  9999
2 20453  35.6240 220.6795 0285541 359.5178   0.5232 14.84254434503032
Epoch (UTC): 21 June 2018 03:39:15
Eccentricity: 0.0285541
inclination: 35.6240°
perigee height: 416 km
apogee height: 815 km
right ascension of ascending node: 220.6795°
argument of perigee: 359.5178°
revolutions per day: 14.84254434
mean anomaly at epoch: 0.5232°
orbit number at epoch: 50303

The dashed part of the orbit path shows where the satellite is in the earth's shadow,  

DLR